[[{"header":{"parameterUnit":"m.s-1","parameterCategory":1,"la1":30.2991,"la2":30.254,"lo1":-89.0895,"lo2":-89.0444,"dy":0.0017,"dx":0.0017,"nx":28,"ny":28,"refTime":"2025-09-08T21:00:00:Z","depth":0,"parameterNumber":2,"parameterNumberName":"U-component_of_WINDS"},"data":[0,0,0,0,0,0,0,0,0,0,0,0,0,0,0,0,0,0,0,0,0,0,0,0,0,0,0,0,0,0,0,0,0,0,0,0,0,0,0,0,0,0,0,0,0,0,0,0,0,0,0,0,0,0,0,0,0,0,-0.9035,-0.9036,0,-0.9117,-0.9118,-0.9119,-0.9088,-0.9086,-0.9085,-0.9083,-0.9176,-0.918,-0.9184,0,0,0,0,0,0,0,0,0,0,0,0,0,-0.8857,-0.886,-0.9035,-0.9036,-0.9037,-0.9117,-0.9118,-0.9119,-0.9089,-0.9086,-0.9084,-0.9082,-0.9174,-0.9179,-0.9184,0,0,0,0,0,0,0,0,0,0,0,0,0,-0.8936,-0.8861,-0.9034,-0.9031,-0.9031,-0.9117,-0.9118,-0.912,-0.9089,-0.9086,-0.9083,-0.9081,-0.9172,-0.9179,-0.9185,-0.9281,0,0,-0.9204,-0.9207,0,0,0,0,0,0,0,0,-0.8932,-0.8943,-0.903,-0.9031,-0.9032,-0.9089,-0.9089,-0.9174,-0.909,-0.9068,-0.9083,-0.9079,-0.915,-0.9158,-0.918,-0.9286,-0.9289,-0.9205,-0.9209,-0.9211,-0.9213,0,0,0,0,0,0,0,-0.8926,-0.8939,-0.9067,-0.9032,-0.9033,-0.9027,-0.9035,-0.9105,-0.9124,-0.9069,-0.9067,-0.9077,-0.915,-0.9174,-0.9182,-0.9291,-0.9205,-0.921,-0.9214,-0.9217,-0.948,-0.9483,0,0,0,0,0,0,-0.892,-0.8935,-0.9065,-0.907,-0.8974,-0.9033,-0.9042,-0.9074,-0.9123,-0.9127,-0.9079,-0.9075,-0.9164,-0.9174,-0.9185,-0.9302,-0.9211,-0.9217,-0.9221,-0.9477,-0.9481,-0.9484,0,0,0,0,0,0,-0.8916,-0.8931,-0.9061,-0.9002,-0.9018,-0.9039,-0.9075,-0.9077,-0.9101,-0.913,-0.9134,-0.91,-0.9162,-0.9176,-0.9257,-0.9304,-0.922,-0.9226,-0.9473,-0.9478,-0.9482,-0.9536,0,0,0,0,0,0,-0.8911,-0.893,-0.8966,-0.9003,-0.9021,-0.9131,-0.9078,-0.9081,-0.9111,-0.9107,-0.9151,-0.9156,-0.9161,-0.9248,-0.9263,-0.9312,-0.9231,-0.9469,-0.9475,-0.9481,-0.953,-0.9542,-0.9552,0,0,0,0,0,-0.8905,-0.8979,-0.8968,-0.8984,-0.9066,-0.9133,-0.9144,-0.9147,-0.9115,-0.9152,-0.917,-0.9154,-0.9296,-0.9256,-0.9273,-0.9325,-0.9466,-0.9473,-0.948,-0.9525,-0.9539,-0.9551,0,0,0,0,0,0,-0.8951,-0.8984,-0.8972,-0.906,-0.9094,-0.9128,-0.9175,-0.9162,-0.9207,-0.9202,-0.9205,-0.9215,-0.9299,-0.9319,-0.9275,-0.942,-0.9376,-0.9387,-0.9404,-0.9418,-0.9429,-0.9424,-0.9236,0,0,0,0,0,-0.8971,-0.9021,-0.9048,-0.9123,-0.914,-0.9155,-0.9184,-0.9183,-0.9219,-0.9234,-0.9258,-0.9296,-0.9349,-0.9384,-0.9434,-0.9531,-0.9542,-0.9575,-0.9586,-0.9594,-0.9605,-0.9659,-0.9674,-0.9507,-0.9507,-0.9507,0,0,-0.9014,-0.9038,-0.907,-0.9133,-0.9159,-0.9213,-0.9167,-0.9226,-0.9267,-0.9244,-0.9322,-0.934,-0.9383,-0.9472,-0.9513,-0.9492,-0.9653,-0.9603,-0.961,-0.9617,-0.9668,-0.9684,-0.9698,-0.9512,-0.9511,-0.9511,0,0,-0.9121,-0.9143,-0.9208,-0.9234,-0.9272,-0.9281,-0.9296,-0.9332,-0.9343,-0.942,-0.9403,-0.9452,-0.9543,-0.9574,-0.9602,-0.9716,-0.9704,-0.9732,-0.9792,-0.9844,-0.9857,-0.9869,-0.9912,-0.9927,-0.9742,-0.9742,-0.9742,0,-0.9171,-0.9249,-0.9244,-0.9304,-0.9333,-0.931,-0.9378,-0.9404,-0.9458,-0.948,-0.9454,-0.9566,-0.9593,-0.969,-0.9717,-0.974,-0.976,-0.973,-0.9855,-0.9866,-0.9877,-0.9919,-0.9935,-0.9746,-0.9745,-0.9745,-0.9745,0,-0.9309,-0.9363,-0.9412,-0.9461,-0.9495,-0.9559,-0.9566,-0.9601,-0.9595,-0.9607,-0.9686,-0.9716,-0.9773,-0.9794,-0.9791,-0.9891,-0.9877,-0.9853,-0.981,-0.9897,-0.9936,-0.9951,-0.9751,-0.9749,-0.9748,-0.9748,0,0,-0.9451,-0.9495,-0.9513,-0.9535,-0.9574,-0.9617,-0.968,-0.9731,-0.9762,-0.9799,-0.9854,-0.9929,-0.9906,-0.9938,-0.9937,-0.9982,-1.0073,-0.9953,-0.9954,-0.9977,-1.0187,-1.0207,-1.0225,-1.0063,-1.0066,-1.0068,-1.0184,0,-0.9563,-0.967,-0.9667,-0.9768,-0.9819,-0.9797,-0.9851,-0.9882,-0.9894,-0.994,-0.9953,-1.0008,-0.9973,-0.9992,-1.0035,-1.0053,-1.0116,-1.0044,-1.0117,-1.0119,-1.011,-1.0245,-1.0267,-1.0376,-1.0199,-1.0202,-1.0204,0,-0.9709,-0.9747,-0.9853,-0.9883,-0.9905,-0.9954,-1.0,-1.0044,-1.0079,-1.0084,-1.0117,-1.0108,-1.0174,-1.0125,-1.0216,-1.0167,-1.0196,-1.0209,-1.0213,-1.0223,-1.017,-1.0262,-1.041,-1.0428,-1.0227,-1.0225,-1.0223,0,-0.9805,-0.9884,-0.9957,-0.9976,-1.0013,-1.0048,-1.0065,-1.0096,-1.0127,-1.0169,-1.0189,-1.0238,-1.0266,-1.0305,-1.031,-1.0274,-1.0403,-1.0354,-1.0412,-1.0412,-1.0444,-1.0442,-1.0601,-1.0456,-1.0456,-1.0456,-1.0455,0,-0.9932,-0.9999,-1.0,-1.0046,-1.012,-1.0115,-1.0189,-1.0203,-1.023,-1.028,-1.0263,-1.031,-1.0312,-1.0361,-1.0366,-1.0441,-1.0454,-1.0462,-1.0463,-1.0465,-1.0465,-1.0488,-1.0482,-1.046,-1.0459,-1.0458,-1.0457,0,-1.0055,-1.0058,-1.0137,-1.0164,-1.0172,-1.0225,-1.0249,-1.0294,-1.0301,-1.0364,-1.0379,-1.0393,-1.0449,-1.0456,-1.0523,-1.0526,-1.0618,-1.061,-1.0606,-1.0606,-1.0664,-1.066,-1.0847,-1.0872,-1.0707,-1.0709,-1.071,0,-1.0138,-1.0188,-1.0218,-1.0249,-1.0267,-1.0317,-1.0347,-1.0344,-1.0377,-1.0418,-1.0458,-1.0511,-1.0555,-1.0646,-1.0664,-1.0715,-1.071,-1.0771,-1.0718,-1.0718,-1.0714,-1.0713,-1.0719,-1.0783,-1.0785,-1.0787,-1.0788,0,-1.0285,-1.0284,-1.0327,-1.0371,-1.0407,-1.0442,-1.0475,-1.0501,-1.0502,-1.054,-1.0595,-1.0629,-1.0694,-1.0749,-1.0799,-1.0819,-1.0805,-1.0803,-1.082,-1.0825,-1.0822,-1.0827,-1.0638,-1.0801,-1.0799,-1.0798,-1.0798,-1.0797,-1.0393,-1.0436,-1.0464,-1.0513,-1.0536,-1.0567,-1.0609,-1.0621,-1.0666,-1.0719,-1.0713,-1.0776,-1.0808,-1.0872,-1.0896,-1.0945,-1.0926,-1.0949,-1.0956,-1.0963,-1.097,-1.081,-1.0954,-1.0954,-1.0953,-1.0953,-1.0953,0,-1.0542,-1.0558,-1.0602,-1.0647,-1.0686,-1.0664,-1.0698,-1.0733,-1.0787,-1.0817,-1.0858,-1.0923,-1.0974,-1.0994,-1.1046,-1.1082,-1.1077,-1.1096,-1.1095,-1.1101,-1.0983,-1.0965,-1.1099,-1.1099,-1.1099,-1.1099,-1.1099,-1.1099,-1.0624,-1.0697,-1.0698,-1.0782,-1.0798,-1.0857,-1.0878,-1.0907,-1.0931,-1.1002,-1.1044,-1.1055,-1.1082,-1.1134,-1.1181,-1.1186,-1.1207,-1.123,-1.1232,-1.1123,-1.1109,-1.1095,-1.1078,-1.1234,-1.1234,-1.1346,-1.1347,-1.1348]},{"header":{"parameterUnit":"m.s-1","parameterCategory":1,"la1":30.2991,"la2":30.254,"lo1":-89.0895,"lo2":-89.0444,"dy":0.0017,"dx":0.0017,"nx":28,"ny":28,"refTime":"2025-09-08T21:00:00:Z","depth":0,"parameterNumber":3,"parameterNumberName":"V-component_of_WINDS"},"data":[0,0,0,0,0,0,0,0,0,0,0,0,0,0,0,0,0,0,0,0,0,0,0,0,0,0,0,0,0,0,0,0,0,0,0,0,0,0,0,0,0,0,0,0,0,0,0,0,0,0,0,0,0,0,0,0,0,0,-4.4241,-4.4242,0,-4.4312,-4.4313,-4.4314,-4.424,-4.4237,-4.4234,-4.4231,-4.43,-4.4305,-4.4309,0,0,0,0,0,0,0,0,0,0,0,0,0,-4.4036,-4.404,-4.4241,-4.4242,-4.4243,-4.4312,-4.4313,-4.4314,-4.424,-4.4237,-4.4233,-4.423,-4.4299,-4.4304,-4.4309,0,0,0,0,0,0,0,0,0,0,0,0,0,-4.4118,-4.4041,-4.4241,-4.4214,-4.4213,-4.4312,-4.4313,-4.4314,-4.4241,-4.4237,-4.4233,-4.4229,-4.4297,-4.4303,-4.431,-4.4437,0,0,-4.4331,-4.4334,0,0,0,0,0,0,0,0,-4.4113,-4.4125,-4.4217,-4.4216,-4.4215,-4.4263,-4.4266,-4.4356,-4.4242,-4.423,-4.4231,-4.4226,-4.4291,-4.4298,-4.4321,-4.4441,-4.4444,-4.4331,-4.4335,-4.4338,-4.434,0,0,0,0,0,0,0,-4.4108,-4.4122,-4.4269,-4.4219,-4.4217,-4.4197,-4.4204,-4.4283,-4.4284,-4.4231,-4.4226,-4.4235,-4.4289,-4.4314,-4.4322,-4.4445,-4.4331,-4.4337,-4.4341,-4.4344,-4.4672,-4.4676,0,0,0,0,0,0,-4.4106,-4.4118,-4.4267,-4.4271,-4.4153,-4.4205,-4.4212,-4.4252,-4.4283,-4.4283,-4.4239,-4.4232,-4.4305,-4.4314,-4.4324,-4.4475,-4.4338,-4.4345,-4.4348,-4.4667,-4.4673,-4.4678,0,0,0,0,0,0,-4.4101,-4.412,-4.4264,-4.4193,-4.421,-4.4213,-4.4258,-4.4255,-4.428,-4.4289,-4.4288,-4.4265,-4.4302,-4.4314,-4.441,-4.4476,-4.4348,-4.4354,-4.4662,-4.4669,-4.4675,-4.4778,0,0,0,0,0,0,-4.4096,-4.4119,-4.4168,-4.4195,-4.4214,-4.4351,-4.4262,-4.426,-4.4293,-4.4284,-4.4313,-4.4313,-4.4299,-4.44,-4.4417,-4.4483,-4.4359,-4.4656,-4.4665,-4.4673,-4.4768,-4.4787,-4.4803,0,0,0,0,0,-4.4089,-4.4193,-4.4171,-4.419,-4.4277,-4.4355,-4.4365,-4.4349,-4.4298,-4.4347,-4.4353,-4.4312,-4.4466,-4.4411,-4.4428,-4.4498,-4.4651,-4.4662,-4.4672,-4.476,-4.4783,-4.4803,0,0,0,0,0,0,-4.4173,-4.4196,-4.4172,-4.4289,-4.4321,-4.4342,-4.4404,-4.4374,-4.4419,-4.4409,-4.4385,-4.4392,-4.4493,-4.4505,-4.4443,-4.4622,-4.455,-4.4565,-4.4611,-4.4633,-4.465,-4.4645,-4.4365,0,0,0,0,0,-4.4206,-4.4269,-4.4285,-4.4386,-4.4403,-4.4401,-4.4434,-4.4419,-4.445,-4.4463,-4.4475,-4.4506,-4.456,-4.4597,-4.4648,-4.4769,-4.4774,-4.4826,-4.4843,-4.4857,-4.487,-4.4934,-4.4957,-4.4712,-4.4712,-4.4712,0,0,-4.4273,-4.4293,-4.4334,-4.4404,-4.4426,-4.4491,-4.4413,-4.4484,-4.4531,-4.4473,-4.4565,-4.4575,-4.4607,-4.4716,-4.4764,-4.4728,-4.4939,-4.4871,-4.4882,-4.4887,-4.4948,-4.4971,-4.4991,-4.4719,-4.4718,-4.4717,0,0,-4.4428,-4.445,-4.4537,-4.4562,-4.4597,-4.4595,-4.4616,-4.4642,-4.4647,-4.4739,-4.4696,-4.4751,-4.4847,-4.4871,-4.4896,-4.5061,-4.5025,-4.5078,-4.5169,-4.5232,-4.5251,-4.5268,-4.5327,-4.5348,-4.509,-4.5091,-4.5091,0,-4.4506,-4.4603,-4.4585,-4.466,-4.4691,-4.4642,-4.4729,-4.4753,-4.4804,-4.4825,-4.4785,-4.4904,-4.4922,-4.5036,-4.5076,-4.5098,-4.512,-4.5074,-4.525,-4.5267,-4.5283,-4.5338,-4.536,-4.5097,-4.5096,-4.5096,-4.5095,0,-4.4698,-4.4766,-4.4831,-4.4883,-4.4921,-4.5001,-4.4993,-4.5034,-4.5015,-4.5016,-4.511,-4.513,-4.5184,-4.521,-4.5191,-4.5321,-4.5298,-4.5254,-4.5182,-4.5313,-4.5364,-4.5385,-4.5106,-4.5104,-4.5102,-4.51,0,0,-4.4909,-4.4949,-4.4973,-4.4996,-4.5032,-4.5083,-4.516,-4.5215,-4.525,-4.5286,-4.5349,-4.5431,-4.5391,-4.542,-4.5403,-4.5459,-4.5587,-4.5408,-4.5409,-4.5441,-4.573,-4.5763,-4.5788,-4.5563,-4.5567,-4.557,-4.5727,0,-4.5065,-4.5201,-4.5187,-4.5316,-4.5378,-4.5332,-4.5399,-4.5428,-4.5431,-4.5482,-4.5485,-4.5543,-4.5486,-4.5503,-4.5556,-4.556,-4.5645,-4.5549,-4.5621,-4.5624,-4.5615,-4.5815,-4.5849,-4.5997,-4.5747,-4.5751,-4.5753,0,-4.5266,-4.531,-4.5447,-4.5473,-4.5498,-4.5559,-4.5607,-4.5658,-4.5688,-4.5686,-4.5719,-4.5692,-4.5768,-4.5694,-4.5798,-4.5733,-4.5761,-4.5768,-4.5773,-4.5779,-4.5697,-4.5826,-4.6043,-4.6065,-4.5785,-4.5782,-4.578,0,-4.5406,-4.55,-4.5593,-4.5614,-4.5647,-4.5691,-4.5706,-4.5732,-4.5766,-4.5807,-4.5829,-4.5878,-4.5905,-4.5943,-4.593,-4.5878,-4.6037,-4.5961,-4.6036,-4.6037,-4.6072,-4.607,-4.6297,-4.6091,-4.609,-4.609,-4.6089,0,-4.5582,-4.5667,-4.5657,-4.5714,-4.5808,-4.5789,-4.5881,-4.589,-4.5914,-4.5971,-4.5934,-4.5988,-4.5968,-4.6021,-4.6011,-4.6098,-4.611,-4.611,-4.6106,-4.6114,-4.6114,-4.6132,-4.6121,-4.6096,-4.6094,-4.6093,-4.6092,0,-4.5754,-4.5751,-4.585,-4.5873,-4.5881,-4.5949,-4.5967,-4.6021,-4.6021,-4.6094,-4.611,-4.6109,-4.6169,-4.616,-4.6226,-4.6219,-4.6328,-4.6312,-4.6319,-4.6315,-4.639,-4.6383,-4.6637,-4.6669,-4.6442,-4.6444,-4.6446,0,-4.5867,-4.5931,-4.5962,-4.5999,-4.6018,-4.6077,-4.6111,-4.6094,-4.6131,-4.6171,-4.6219,-4.6276,-4.632,-4.6418,-4.6422,-4.6472,-4.6457,-4.6542,-4.6464,-4.6469,-4.6458,-4.6455,-4.6461,-4.6558,-4.656,-4.6563,-4.6564,0,-4.6067,-4.6062,-4.6114,-4.6166,-4.6208,-4.6248,-4.6283,-4.6314,-4.6301,-4.6344,-4.6406,-4.644,-4.6508,-4.6565,-4.6612,-4.6625,-4.6593,-4.6589,-4.6609,-4.6617,-4.6618,-4.6618,-4.6361,-4.6583,-4.6581,-4.658,-4.6579,-4.6578,-4.6213,-4.6268,-4.6299,-4.6357,-4.6382,-4.6416,-4.6468,-4.6474,-4.6526,-4.6581,-4.6568,-4.6637,-4.6664,-4.6724,-4.6743,-4.6796,-4.6764,-4.6793,-4.6801,-4.6808,-4.6817,-4.661,-4.6804,-4.6804,-4.6803,-4.6803,-4.6803,0,-4.6411,-4.6429,-4.6483,-4.6534,-4.658,-4.6547,-4.6584,-4.6624,-4.6687,-4.6716,-4.6761,-4.6831,-4.6885,-4.6895,-4.6946,-4.6986,-4.6973,-4.7,-4.6997,-4.7001,-4.6843,-4.682,-4.7011,-4.7011,-4.7011,-4.7011,-4.701,-4.701,-4.652,-4.6612,-4.661,-4.6713,-4.6729,-4.6799,-4.6823,-4.6853,-4.6876,-4.6957,-4.7003,-4.7009,-4.7029,-4.7082,-4.713,-4.7131,-4.7151,-4.7185,-4.718,-4.7033,-4.7012,-4.6992,-4.6971,-4.719,-4.719,-4.7334,-4.7335,-4.7336]}]]